Weather History for Mount Pleasant, TX

Change the Weather History Date:

Tuesday, October 15, 2013

  Actual Average (KGGG) Record (KGGG)
Temperature  
Mean Temperature 68 °F 66 °F  
Max Temperature 75 °F 78 °F 96 °F (1938)
Min Temperature 60 °F 54 °F 40 °F (1937)
Degree Days  
Heating Degree Days 0 2  
Month to date heating degree days 21  
Since 1 July heating degree days 27  
Cooling Degree Days 2 3  
Month to date cooling degree days 72  
Year to date cooling degree days 2351  
Growing Degree Days 18 (Base 50)    
Moisture  
Dew Point 67 °F    
Average Humidity 90    
Maximum Humidity 93    
Minimum Humidity 82    
Precipitation  
Precipitation 1.39 in 0.16 in 5.96 in (1957)
Month to date precipitation 2.25  
Year to date precipitation 36.24  
Snow  
Snow 0.00 in - - ()
Month to date snowfall  
Since 1 July snowfall  
Since 1 September snowfall  
Snow Depth -    
Sea Level Pressure  
Sea Level Pressure 29.98 in    
Wind  
Wind Speed 5 mph (South)    
Max Wind Speed 14 mph    
Max Gust Speed 20 mph    
Visibility 6 miles    
Events      
T = Trace of Precipitation, MM = Missing Value Source: NWS Daily Summary

Daily Weather History Graph

Daily Weather History Graph

Search for Another Location

Airport:

Trip Planner

Search our weather history database for the weather conditions in past years. The results will help you decide how hot, cold, wet, or windy it might be!

Date:

Astronomy

Oct. 15, 2013 Rise Set
Actual Time 7:24 AM CDT 6:46 PM CDT
Civil Twilight 6:59 AM CDT 7:11 PM CDT
Nautical Twilight 6:30 AM CDT 7:39 PM CDT
Astronomical Twilight 6:02 AM CDT 8:08 PM CDT
Moon 4:43 PM CDT (10/15) 3:58 AM CDT (10/15)
Length of Visible Light 12h 11m
Length of Day
11h 21m
Waxing Gibbous, 88% of the Moon is Illuminated
Oct 15
Waxing Gibbous
Oct 18
Full
Oct 26
Last Quarter
Nov 3
New
Nov 9
First Quarter

Hourly Weather History & Observations

Time (CDT) Temp. Dew Point Humidity Pressure Visibility Wind Dir Wind Speed Gust Speed Precip Events Conditions
12:15 AM 71.2 °F 67.8 °F 89% 29.99 in 7.0 mi SE 11.5 mph - N/A   Overcast
12:35 AM 71.1 °F 66.6 °F 86% 29.99 in 10.0 mi SSE 8.1 mph - N/A   Overcast
12:55 AM 70.9 °F 67.1 °F 88% 29.98 in 10.0 mi SE 5.8 mph - N/A   Overcast
1:15 AM 70.9 °F 67.5 °F 89% 29.98 in 7.0 mi SE 4.6 mph - N/A   Overcast
1:35 AM 70.9 °F 67.5 °F 89% 29.98 in 7.0 mi SE 5.8 mph - N/A   Overcast
1:55 AM 70.9 °F 67.6 °F 89% 29.99 in 7.0 mi SE 4.6 mph - N/A   Overcast
2:35 AM 70.9 °F 67.6 °F 89% 29.99 in 7.0 mi SE 3.5 mph - N/A   Overcast
2:55 AM 70.9 °F 68.0 °F 91% 29.99 in 5.0 mi SE 3.5 mph - N/A   Overcast
3:15 AM 70.9 °F 68.0 °F 91% 29.99 in 5.0 mi SE 4.6 mph - N/A   Overcast
3:35 AM 70.9 °F 68.2 °F 91% 29.98 in 4.0 mi SSE 4.6 mph - N/A   Overcast
3:55 AM 70.9 °F 68.2 °F 91% 29.98 in 5.0 mi Calm Calm - N/A   Overcast
4:15 AM 71.2 °F 68.5 °F 91% 29.97 in 5.0 mi Calm Calm - N/A   Overcast
4:35 AM 71.6 °F 68.5 °F 90% 29.97 in 7.0 mi SSE 4.6 mph - N/A   Overcast
4:55 AM 71.8 °F 68.5 °F 89% 29.96 in 7.0 mi SSE 5.8 mph - N/A   Overcast
5:15 AM 71.8 °F 68.5 °F 89% 29.96 in 7.0 mi South 6.9 mph - N/A   Overcast
5:35 AM 71.6 °F 68.2 °F 89% 29.96 in 7.0 mi South 4.6 mph - N/A   Mostly Cloudy
5:55 AM 71.4 °F 68.4 °F 90% 29.97 in 5.0 mi SSE 5.8 mph - N/A   Mostly Cloudy
6:15 AM 71.4 °F 68.5 °F 91% 29.97 in 5.0 mi SSE 5.8 mph - N/A   Overcast
6:35 AM 71.6 °F 68.4 °F 89% 29.97 in 5.0 mi South 4.6 mph - N/A   Overcast
6:55 AM 71.6 °F 68.4 °F 89% 29.97 in 7.0 mi Calm Calm - N/A   Overcast
7:15 AM 71.6 °F 68.5 °F 90% 29.97 in 7.0 mi Calm Calm - N/A   Overcast
7:35 AM 71.6 °F 68.5 °F 90% 29.97 in 7.0 mi Calm Calm - N/A   Overcast
7:55 AM 71.6 °F 68.5 °F 90% 29.98 in 5.0 mi Calm Calm - N/A   Overcast
8:15 AM 71.6 °F 68.5 °F 90% 29.98 in 4.0 mi Calm Calm - N/A   Mostly Cloudy
8:35 AM 72.0 °F 68.9 °F 90% 29.98 in 5.0 mi South 6.9 mph - N/A   Mostly Cloudy
8:55 AM 72.5 °F 69.3 °F 90% 29.97 in 5.0 mi South 9.2 mph - N/A   Overcast
9:15 AM 72.9 °F 69.1 °F 88% 29.97 in 5.0 mi South 6.9 mph - N/A   Mostly Cloudy
9:35 AM 73.4 °F 69.3 °F 87% 29.97 in 7.0 mi Calm Calm - N/A   Scattered Clouds
9:55 AM 74.3 °F 70.0 °F 86% 29.97 in 7.0 mi SSW 4.6 mph - N/A   Scattered Clouds
10:15 AM 74.5 °F 69.8 °F 85% 29.98 in 7.0 mi Calm Calm - N/A   Overcast
10:35 AM 74.8 °F 69.8 °F 84% 29.99 in 7.0 mi SSW 8.1 mph - N/A   Overcast
10:55 AM 75.0 °F 69.8 °F 84% 29.99 in 10.0 mi Calm Calm - N/A   Overcast
11:15 AM 75.6 °F 70.7 °F 85% 29.99 in 5.0 mi SW 6.9 mph - N/A   Overcast
11:35 AM 75.6 °F 70.2 °F 83% 29.98 in 10.0 mi SSW 6.9 mph - N/A   Overcast
11:55 AM 75.4 °F 69.4 °F 82% 29.98 in 10.0 mi Calm Calm - N/A   Overcast
12:15 PM 74.1 °F 69.6 °F 86% 29.98 in 3.0 mi Calm Calm - 0.04 in   Overcast
12:35 PM 74.5 °F 70.2 °F 86% 29.96 in 7.0 mi Calm Calm - 0.04 in   Overcast
12:55 PM 74.5 °F 70.0 °F 86% 29.96 in 7.0 mi SW 6.9 mph - 0.04 in   Overcast
1:15 PM 74.8 °F 70.9 °F 87% 29.95 in 7.0 mi Calm Calm - N/A   Overcast
1:35 PM 74.7 °F 71.1 °F 88% 29.94 in 4.0 mi Calm Calm - 0.01 in   Overcast
1:55 PM 73.4 °F 70.0 °F 89% 29.93 in 4.0 mi South 12.7 mph - 0.01 in   Overcast
2:15 PM 72.7 °F 69.8 °F 91% 29.93 in 1.0 mi SSW 9.2 mph - 0.21 in   Overcast
2:35 PM 72.7 °F 69.8 °F 91% 29.93 in 4.0 mi WSW 8.1 mph - 0.22 in   Overcast
2:55 PM 72.0 °F 68.7 °F 89% 29.94 in 1.2 mi West 13.8 mph 19.6 mph 0.32 in   Overcast
3:15 PM 71.4 °F 68.4 °F 90% 29.94 in 4.0 mi WNW 6.9 mph - 0.03 in   Overcast
3:35 PM 69.8 °F 66.7 °F 90% 29.95 in 4.0 mi Calm Calm - 0.07 in   Overcast
3:55 PM 69.1 °F 66.2 °F 91% 29.96 in 1.8 mi NNE 4.6 mph - 0.16 in   Overcast
4:15 PM 68.5 °F 65.7 °F 90% 29.96 in 7.0 mi NNE 4.6 mph - 0.01 in   Mostly Cloudy
4:35 PM 68.4 °F 65.7 °F 91% 29.96 in 5.0 mi Calm Calm - 0.03 in   Overcast
4:55 PM 68.4 °F 65.7 °F 91% 29.95 in 1.2 mi Calm Calm - 0.09 in   Overcast
5:15 PM 68.2 °F 65.7 °F 92% 29.95 in 4.0 mi Calm Calm - 0.02 in   Mostly Cloudy
5:35 PM 68.0 °F 65.5 °F 92% 29.96 in 3.0 mi NNE 4.6 mph - 0.03 in   Overcast
5:55 PM 67.6 °F 65.3 °F 92% 29.96 in 3.0 mi Calm Calm - 0.08 in   Overcast
6:15 PM 67.5 °F 65.3 °F 93% 29.96 in 4.0 mi NNE 4.6 mph - 0.04 in   Scattered Clouds
6:35 PM 67.3 °F 65.1 °F 93% 29.96 in 5.0 mi Calm Calm - 0.07 in   Scattered Clouds
6:55 PM 67.3 °F 64.9 °F 92% 29.96 in 7.0 mi Calm Calm - 0.09 in   Mostly Cloudy
7:15 PM 67.3 °F 65.1 °F 93% 29.97 in 10.0 mi Calm Calm - 0.01 in   Overcast
7:55 PM 67.3 °F 64.9 °F 92% 29.99 in 5.0 mi Calm Calm - 0.03 in   Mostly Cloudy
8:15 PM 67.3 °F 64.9 °F 92% 29.99 in 4.0 mi Calm Calm - 0.03 in   Scattered Clouds
8:35 PM 66.2 °F 63.7 °F 92% 30.00 in 3.0 mi North 4.6 mph - 0.09 in   Unknown
8:55 PM 65.8 °F 63.5 °F 92% 29.99 in 4.0 mi Calm Calm - 0.16 in   Scattered Clouds
9:15 PM 65.5 °F 63.5 °F 93% 30.01 in 7.0 mi Calm Calm - 0.01 in   Mostly Cloudy
9:35 PM 65.3 °F 63.0 °F 92% 30.02 in 3.0 mi NW 6.9 mph - 0.05 in   Overcast
9:55 PM 64.6 °F 62.2 °F 92% 30.02 in 4.0 mi NNW 6.9 mph - 0.11 in   Overcast
10:15 PM 63.7 °F 61.3 °F 92% 30.03 in 3.0 mi NW 12.7 mph - 0.06 in   Overcast
10:35 PM 62.8 °F 60.4 °F 92% 30.04 in 4.0 mi NW 11.5 mph - 0.13 in   Overcast
10:55 PM 61.7 °F 59.2 °F 91% 30.04 in 5.0 mi NW 8.1 mph - 0.19 in   Overcast
11:15 PM 60.8 °F 58.5 °F 92% 30.03 in 5.0 mi NNW 8.1 mph - 0.05 in   Overcast
11:35 PM 60.6 °F 58.1 °F 91% 30.03 in 7.0 mi NW 3.5 mph - 0.10 in   Overcast
11:55 PM 60.3 °F 57.9 °F 92% 30.01 in 10.0 mi North 4.6 mph - 0.11 in   Mostly Cloudy